DEDDG EDDG-EDLA

Flight info

Callsign DEDDG
Flight time 0h 25m
Altitude 2000
Route VFR
Aircraft C172/L-S/L

Departure

Time 2026-04-27 14:55
Airport Münster Osnabrück Airport (EDDG)

Arrival

Time 2026-04-27 15:20
Airport Arnsberg-Menden Airfield (EDLA)
Time Latitude Longitude Altitude Speed Heading
2026-04-27 14:45 52.13140 7.68233 162 ft 0 kts 270°
2026-04-27 14:50 52.13141 7.68228 162 ft 2 kts 283°
2026-04-27 14:50 52.13168 7.68211 162 ft 6 kts 42°
2026-04-27 14:50 52.13187 7.68289 162 ft 10 kts 72°
2026-04-27 14:50 52.13229 7.68335 162 ft 8 kts 340°
2026-04-27 14:51 52.13282 7.68306 162 ft 7 kts 340°
2026-04-27 14:51 52.13323 7.68284 163 ft 4 kts 341°
2026-04-27 14:51 52.13325 7.68283 163 ft 0 kts 341°
2026-04-27 14:53 52.13350 7.68267 163 ft 6 kts 338°
2026-04-27 14:54 52.13395 7.68238 164 ft 7 kts 349°
2026-04-27 14:54 52.13432 7.68330 164 ft 24 kts 71°
2026-04-27 14:54 52.13544 7.68862 175 ft 69 kts 71°
2026-04-27 14:54 52.13716 7.69621 378 ft 73 kts 69°
2026-04-27 14:55 52.13871 7.70441 621 ft 79 kts 70°
2026-04-27 14:55 52.14003 7.71298 866 ft 80 kts 82°
2026-04-27 14:55 52.13963 7.72208 1090 ft 82 kts 100°
2026-04-27 14:55 52.13743 7.73068 1347 ft 83 kts 108°
2026-04-27 14:56 52.13538 7.73950 1606 ft 84 kts 104°
2026-04-27 14:56 52.13344 7.74838 1894 ft 84 kts 104°
2026-04-27 14:56 52.13124 7.75780 2013 ft 96 kts 105°
2026-04-27 14:56 52.12900 7.76850 2045 ft 102 kts 104°
2026-04-27 14:57 52.12669 7.77969 2067 ft 107 kts 104°
2026-04-27 14:57 52.12456 7.79114 2096 ft 107 kts 101°
2026-04-27 14:57 52.12258 7.80313 2007 ft 112 kts 101°
2026-04-27 14:57 52.12047 7.81520 2007 ft 110 kts 101°
2026-04-27 14:58 52.11813 7.82720 1998 ft 111 kts 109°
2026-04-27 14:58 52.11501 7.83854 1991 ft 107 kts 109°
2026-04-27 14:58 52.11175 7.84912 1991 ft 104 kts 124°
2026-04-27 14:58 52.10685 7.85774 1998 ft 105 kts 128°
2026-04-27 14:59 52.10160 7.86604 1997 ft 107 kts 142°
2026-04-27 14:59 52.09507 7.87181 2048 ft 103 kts 146°
2026-04-27 14:59 52.08859 7.87570 2162 ft 98 kts 165°
2026-04-27 14:59 52.08187 7.87871 2318 ft 105 kts 162°
2026-04-27 15:00 52.07455 7.88190 2468 ft 112 kts 162°
2026-04-27 15:00 52.06680 7.88536 2495 ft 118 kts 162°
2026-04-27 15:00 52.05890 7.88880 2497 ft 117 kts 161°
2026-04-27 15:00 52.05113 7.89214 2500 ft 116 kts 161°
2026-04-27 15:01 52.04332 7.89538 2502 ft 116 kts 162°
2026-04-27 15:01 52.03562 7.89860 2493 ft 113 kts 161°
2026-04-27 15:01 52.02803 7.90175 2505 ft 114 kts 162°
2026-04-27 15:01 52.02040 7.90525 2499 ft 114 kts 161°
2026-04-27 15:02 52.01260 7.90847 2506 ft 119 kts 162°
2026-04-27 15:02 52.00462 7.91201 2508 ft 119 kts 161°
2026-04-27 15:02 51.99658 7.91563 2507 ft 120 kts 160°
2026-04-27 15:02 51.98850 7.91892 2491 ft 118 kts 161°
2026-04-27 15:03 51.98066 7.92214 2501 ft 116 kts 161°
2026-04-27 15:03 51.97286 7.92538 2494 ft 114 kts 160°
2026-04-27 15:03 51.96491 7.92845 2500 ft 121 kts 168°
2026-04-27 15:03 51.95664 7.93016 2499 ft 119 kts 169°
2026-04-27 15:04 51.94846 7.93195 2502 ft 118 kts 169°
2026-04-27 15:04 51.94029 7.93375 2497 ft 118 kts 168°
2026-04-27 15:04 51.93218 7.93573 2510 ft 120 kts 169°
2026-04-27 15:04 51.92375 7.93764 2498 ft 123 kts 168°
2026-04-27 15:05 51.91533 7.93953 2504 ft 123 kts 169°
2026-04-27 15:05 51.90695 7.94157 2486 ft 120 kts 169°
2026-04-27 15:05 51.89889 7.94344 2495 ft 117 kts 169°
2026-04-27 15:05 51.89092 7.94529 2489 ft 114 kts 169°
2026-04-27 15:06 51.88306 7.94708 2498 ft 114 kts 168°
2026-04-27 15:06 51.87496 7.94776 2501 ft 120 kts 183°
2026-04-27 15:06 51.86673 7.94643 2505 ft 119 kts 181°
2026-04-27 15:06 51.85838 7.94513 2497 ft 122 kts 183°
2026-04-27 15:07 51.85002 7.94404 2498 ft 120 kts 181°
2026-04-27 15:07 51.84172 7.94297 2492 ft 118 kts 182°
2026-04-27 15:07 51.83361 7.94202 2492 ft 117 kts 182°
2026-04-27 15:07 51.82570 7.94103 2495 ft 115 kts 181°
2026-04-27 15:08 51.81760 7.94008 2444 ft 118 kts 182°
2026-04-27 15:08 51.80927 7.93905 2349 ft 122 kts 182°
2026-04-27 15:08 51.80076 7.93798 2251 ft 123 kts 181°
2026-04-27 15:08 51.79201 7.93689 2164 ft 129 kts 182°
2026-04-27 15:09 51.78296 7.93580 2058 ft 131 kts 182°
2026-04-27 15:09 51.77393 7.93470 1994 ft 128 kts 182°
2026-04-27 15:09 51.76528 7.93362 1981 ft 122 kts 182°
2026-04-27 15:09 51.75690 7.93261 1984 ft 121 kts 181°
2026-04-27 15:10 51.74840 7.93158 1988 ft 123 kts 182°
2026-04-27 15:10 51.74004 7.93054 1997 ft 120 kts 181°
2026-04-27 15:10 51.73164 7.92962 1994 ft 121 kts 182°
2026-04-27 15:10 51.72331 7.92847 1985 ft 118 kts 181°
2026-04-27 15:11 51.71530 7.92752 1991 ft 114 kts 180°
2026-04-27 15:11 51.70733 7.92650 1995 ft 115 kts 181°
2026-04-27 15:11 51.69939 7.92557 1991 ft 114 kts 180°
2026-04-27 15:11 51.69148 7.92464 1995 ft 115 kts 180°
2026-04-27 15:12 51.68326 7.92360 1996 ft 120 kts 181°
2026-04-27 15:12 51.67500 7.92261 1991 ft 118 kts 181°
2026-04-27 15:12 51.66683 7.92160 2000 ft 120 kts 181°
2026-04-27 15:12 51.65849 7.92058 2002 ft 121 kts 181°
2026-04-27 15:13 51.65022 7.91960 1987 ft 116 kts 181°
2026-04-27 15:13 51.64228 7.91865 1988 ft 114 kts 181°
2026-04-27 15:13 51.63445 7.91766 1983 ft 112 kts 182°
2026-04-27 15:13 51.62671 7.91671 1993 ft 112 kts 182°
2026-04-27 15:14 51.61871 7.91574 2002 ft 117 kts 181°
2026-04-27 15:14 51.61057 7.91475 1997 ft 117 kts 182°
2026-04-27 15:14 51.60251 7.91377 1997 ft 119 kts 183°
2026-04-27 15:14 51.59410 7.91265 1981 ft 123 kts 184°
2026-04-27 15:15 51.58563 7.91106 1940 ft 121 kts 185°
2026-04-27 15:15 51.57736 7.90935 1926 ft 121 kts 186°
2026-04-27 15:15 51.56909 7.90731 1911 ft 120 kts 187°
2026-04-27 15:15 51.56091 7.90496 1838 ft 121 kts 189°
2026-04-27 15:16 51.55265 7.90243 1769 ft 123 kts 188°
2026-04-27 15:16 51.54694 7.90097 1758 ft 122 kts 185°
2026-04-27 15:16 51.53857 7.89889 1749 ft 123 kts 187°
2026-04-27 15:16 51.52994 7.89681 1722 ft 126 kts 187°
2026-04-27 15:17 51.52128 7.89539 1696 ft 125 kts 182°
2026-04-27 15:17 51.51271 7.89440 1653 ft 124 kts 182°
2026-04-27 15:17 51.50423 7.89207 1596 ft 123 kts 198°
2026-04-27 15:17 51.49739 7.88471 1561 ft 116 kts 227°
2026-04-27 15:18 51.49193 7.87567 1528 ft 110 kts 228°
2026-04-27 15:18 51.48677 7.86718 1591 ft 104 kts 229°
2026-04-27 15:18 51.48121 7.85985 1568 ft 102 kts 200°
2026-04-27 15:18 51.47495 7.86173 1535 ft 91 kts 130°
2026-04-27 15:19 51.47144 7.86980 1461 ft 83 kts 98°
2026-04-27 15:19 51.47288 7.87803 1288 ft 77 kts 49°
2026-04-27 15:19 51.47612 7.88398 1048 ft 66 kts 47°
2026-04-27 15:19 51.47908 7.88943 852 ft 66 kts 49°
2026-04-27 15:20 51.48180 7.89450 778 ft 50 kts 48°
2026-04-27 15:20 51.48348 7.89758 783 ft 27 kts 50°
2026-04-27 15:20 51.48386 7.89883 785 ft 8 kts 146°
2026-04-27 15:20 51.48352 7.89881 785 ft 5 kts 222°
2026-04-27 15:21 51.48321 7.89825 785 ft 11 kts 228°
2026-04-27 15:21 51.48266 7.89726 782 ft 12 kts 230°
2026-04-27 15:21 51.48215 7.89631 782 ft 10 kts 232°
2026-04-27 15:21 51.48171 7.89547 782 ft 10 kts 230°
2026-04-27 15:22 51.48123 7.89460 780 ft 12 kts 230°
2026-04-27 15:22 51.48075 7.89369 782 ft 9 kts 236°
2026-04-27 15:22 51.48098 7.89305 781 ft 6 kts
2026-04-27 15:22 51.48114 7.89328 780 ft 0 kts 48°
2026-04-27 15:23 51.48164 7.89420 778 ft 35 kts 49°
2026-04-27 15:23 51.48424 7.89896 812 ft 70 kts 48°
2026-04-27 15:23 51.48754 7.90501 1004 ft 75 kts 47°
2026-04-27 15:23 51.49123 7.91109 1205 ft 81 kts 42°
2026-04-27 15:24 51.49651 7.91266 1376 ft 85 kts 338°
2026-04-27 15:24 51.50093 7.90550 1472 ft 97 kts 303°
2026-04-27 15:24 51.50261 7.89431 1487 ft 112 kts 275°
2026-04-27 15:24 51.50229 7.88139 1466 ft 117 kts 269°
2026-04-27 15:25 51.50015 7.86904 1433 ft 114 kts 247°
2026-04-27 15:25 51.49663 7.85796 1456 ft 108 kts 245°
2026-04-27 15:25 51.49326 7.84745 1497 ft 104 kts 245°
2026-04-27 15:25 51.48993 7.83679 1506 ft 111 kts 245°
2026-04-27 15:26 51.48638 7.82538 1509 ft 114 kts 245°
2026-04-27 15:26 51.48292 7.81429 1502 ft 111 kts 245°
2026-04-27 15:26 51.47948 7.80313 1506 ft 112 kts 245°
2026-04-27 15:26 51.47605 7.79185 1494 ft 113 kts 245°
2026-04-27 15:27 51.47266 7.78075 1489 ft 109 kts 246°
2026-04-27 15:27 51.47079 7.76951 1498 ft 103 kts 265°
2026-04-27 15:27 51.46951 7.75824 1547 ft 101 kts 262°
2026-04-27 15:27 51.46902 7.74696 1668 ft 103 kts 288°
2026-04-27 15:28 51.47047 7.73569 1818 ft 102 kts 285°
2026-04-27 15:28 51.47207 7.72486 1976 ft 95 kts 290°